Погода в Среднем Сантимире

Россия / Ульяновская область     54°16′36″N   50°05′42″E
темп.,
°C
ветер,
м/с
пор.,
м/с
влажн.,
%
обл.,
%
осадки,
мм/ч
давл.,
гПа
погр.,
м
28 февраля, вс
вс2801:00−13ссз5109397 0.0 1001357
04:00−15сз5119498 0.1 1003330
07:00−17ссз51094100 0.0 1005327
10:00−15ссз5993100 0.1 1007363
13:00−13ссз5892100 0.1 1008436
16:00−13ссз5891100 0.2 1010514
19:00−14ссз399499 0.1 1013410
22:00−18ссз369586 0.1 1015117
1 марта, пн
пн101:00−20ссз349723 0.0 101654
04:00−21ссз349720 0.0 101880
07:00−22ссз239716 0.0 102044
10:00−19ссз369416 0.0 1022254
13:00−15сз348955 0.0 1022399
16:00−13зсз249069 0.0 1022374
19:00−18зюз229768 0.0 102120
22:00−19ююз339740 0.0 102141
2 марта, вт
вт201:00−16ююз489792 0.0 1018178
04:00−13ююз5119496 0.1 1014277
07:00−11ююз61294100 0.2 1010389
10:00−7ююз71393100 0.8 1007538
13:00−2юз71296100 0.6 1003681
16:000юз61199100 2.2 1001644
19:000з4994100 0.6 1000577
22:00−1з379897 0.7 1000242
3 марта, ср
ср301:00−2з379882 0.3 1000249
04:00−3з379789 0.8 1001283
07:00−4зсз389698 0.4 1001284
10:00−4сз499398 0.6 1003451
13:00−2сз578997 0.0 1004697
16:00−3сз598998 0.1 1005782
19:00−7зсз499392 0.1 1006262
22:00−6сз4129287 0.1 1008548
4 марта, чт
чт401:00−8сз4109295 0.1 1009281
04:00−12зсз349668 0.1 101177
07:00−13з359751 0.0 1012107
10:00−10юз499468 0.0 1010315
13:00−5юз7139096 0.0 1007551
16:00−2юз9159197 0.1 1004900
19:00−1юз81584100 0.1 1002980
22:00−1зюз71588100 0.1 10021070